Content
SEND FEEDBACK

Daily
Averages
Monthly
Summary
United States of America

LITTLE MORONGO HEIGHTS, CALIFORNIA


Home > North America > United States > California
Elevation: 4330 feet     Latitude: 34 10N     Longitude: 116 32W

WEATHER
 
SELECT A DAY
Number of Records: 301,254;   Date Range: 4/19/07 - 7/22/14
 
SHARE

PRINT THIS DATA

[ ← Previous Day ]
WEATHER ALMANAC - JANUARY 23, 2013
[ Next Day → ]
[ °C ]   °F
Weather ElementAverageHighLow
Temperature42.2 °F53.6 °F (12:15 pm)28.4 °F (12:35 am)
Dewpoint25.3 °F32 °F (9:15 pm)17.6 °F (12:35 am)
Humidity53.5 %75 % (7:35 am)33 % (11:55 am)
Barometer30.24 in30.30 in (9:35 am)30.20 in (10:15 pm)
Wind Speed3.7 mph10.4 mph (3:35 am)
Wind Gust17.3 mph (11:55 am)
Weather ElementAverage
Visibility10 mi
Wind DirectionSSE (146.6 °)

Weather ElementTotal
Precipitation---
Heating Degree Days24 (Base 65)
Averaged from 71 records on January 23, 2013
WEATHER CONDITIONS BREAKOUT
WIND DIRECTION BREAKOUT
WEATHER BY HOUR - JANUARY 23, 2013
[ °C ]   °F
Local TimeTemperatureDewpointHumidityBarometerVisibilityWind DirectionWind SpeedGust SpeedPrecipitationEventsConditions
12:35 AM28.4 °F17.6 °F64 %30.28 in10.0 miCalmClear
12:55 AM28.4 °F17.6 °F64 %30.28 in7.0 miCalmClear
1:15 AM28.4 °F19.4 °F69 %30.28 in10.0 miCalmClear
1:35 AM30.2 °F19.4 °F64 %30.28 in10.0 miWNW (290°)3.5 mphClear
1:55 AM30.2 °F19.4 °F64 %30.27 in10.0 miWest (270°)3.5 mphClear
2:15 AM30.2 °F19.4 °F64 %30.27 in10.0 miCalmClear
2:35 AM37.4 °F23.0 °F56 %30.27 in10.0 miSW (230°)8.1 mphClear
2:55 AM42.8 °F23.0 °F46 %30.26 in10.0 miSW (220°)9.2 mphClear
3:15 AM44.6 °F23.0 °F43 %30.25 in10.0 miSSW (200°)6.9 mphClear
3:35 AM44.6 °F23.0 °F43 %30.25 in10.0 miSSW (210°)10.4 mphClear
3:55 AM46.4 °F23.0 °F40 %30.25 in10.0 miSW (220°)10.4 mphClear
4:15 AM46.4 °F23.0 °F40 %30.24 in10.0 miSSW (200°)4.6 mphClear
4:35 AM46.4 °F21.2 °F37 %30.24 in10.0 miSouth (180°)6.9 mphClear
4:55 AM37.4 °F23.0 °F56 %30.25 in10.0 miCalmClear
5:15 AM37.4 °F23.0 °F56 %30.25 in10.0 miCalmClear
5:35 AM35.6 °F23.0 °F60 %30.25 in10.0 miCalmClear
5:55 AM35.6 °F23.0 °F60 %30.25 in10.0 miCalmClear
6:15 AM33.8 °F24.8 °F70 %30.26 in10.0 miCalmClear
6:35 AM33.8 °F24.8 °F70 %30.26 in10.0 miCalmClear
6:55 AM33.8 °F24.8 °F70 %30.26 in10.0 miCalmClear
7:15 AM33.8 °F24.8 °F70 %30.27 in10.0 miCalmClear
7:35 AM33.8 °F26.6 °F75 %30.27 in10.0 miCalmClear
7:55 AM35.6 °F26.6 °F70 %30.28 in10.0 miCalmClear
8:15 AM35.6 °F26.6 °F70 %30.28 in10.0 miCalmScattered Clouds
8:35 AM37.4 °F26.6 °F65 %30.29 in10.0 miCalmScattered Clouds
8:55 AM37.4 °F26.6 °F65 %30.29 in10.0 miCalmMostly Cloudy
9:15 AM37.4 °F26.6 °F65 %30.29 in10.0 miCalmMostly Cloudy
9:35 AM41.0 °F28.4 °F61 %30.30 in10.0 miCalmMostly Cloudy
9:55 AM42.8 °F26.6 °F53 %30.29 in10.0 miNW (310°)3.5 mphScattered Clouds
10:15 AM46.4 °F26.6 °F46 %30.30 in10.0 miSW (220°)3.5 mphMostly Cloudy
10:35 AM50.0 °F24.8 °F37 %30.29 in10.0 miCalmScattered Clouds
10:55 AM51.8 °F24.8 °F35 %30.29 in10.0 miWSW (250°)8.1 mphMostly Cloudy
11:15 AM51.8 °F24.8 °F35 %30.28 in10.0 miWSW (240°)3.5 mphScattered Clouds
11:35 AM51.8 °F24.8 °F35 %30.27 in10.0 miSouth (190°)6.9 mphClear
11:55 AM51.8 °F23.0 °F33 %30.26 in10.0 miSouth (170°)8.1 mph17.3 mphScattered Clouds
12:15 PM53.6 °F24.8 °F33 %30.25 in10.0 miSouth (190°)3.5 mph16.1 mphMostly Cloudy
12:35 PM53.6 °F24.8 °F33 %30.24 in10.0 miSW (220°)6.9 mphMostly Cloudy
12:55 PM53.6 °F24.8 °F33 %30.23 in10.0 miWSW (240°)5.8 mphMostly Cloudy
1:15 PM51.8 °F23.0 °F33 %30.22 in10.0 miENE (60°)3.5 mphMostly Cloudy
1:35 PM51.8 °F24.8 °F35 %30.22 in10.0 miSouth (170°)4.6 mphMostly Cloudy
1:55 PM51.8 °F24.8 °F35 %30.22 in10.0 miSSW (200°)3.5 mph16.1 mphScattered Clouds
2:15 PM51.8 °F24.8 °F35 %30.22 in10.0 miSouth (190°)10.4 mph16.1 mphScattered Clouds
2:35 PM51.8 °F24.8 °F35 %30.22 in10.0 miSSW (200°)6.9 mphClear
2:55 PM51.8 °F23.0 °F33 %30.22 in10.0 miSouth (190°)3.5 mphScattered Clouds
3:15 PM51.8 °F23.0 °F33 %30.22 in10.0 miSW (230°)6.9 mph17.3 mphScattered Clouds
3:35 PM48.2 °F24.8 °F40 %30.22 in10.0 miWest (270°)4.6 mphClear
3:55 PM46.4 °F23.0 °F40 %30.21 in10.0 miWest (270°)8.1 mphClear
4:15 PM44.6 °F24.8 °F46 %30.22 in10.0 miWest (270°)8.1 mphScattered Clouds
4:35 PM44.6 °F23.0 °F43 %30.23 in10.0 miWNW (290°)6.9 mphScattered Clouds
4:55 PM44.6 °F23.0 °F43 %30.23 in10.0 miNW (320°)4.6 mphScattered Clouds
5:15 PM44.6 °F23.0 °F43 %30.22 in10.0 miCalmScattered Clouds
5:35 PM41.0 °F26.6 °F57 %30.21 in10.0 miCalmClear
5:55 PM39.2 °F26.6 °F61 %30.22 in10.0 miSSW (210°)3.5 mphClear
6:15 PM41.0 °F26.6 °F57 %30.22 in10.0 miWest (270°)5.8 mphClear
6:35 PM39.2 °F26.6 °F61 %30.22 in10.0 miSW (230°)3.5 mphClear
6:55 PM41.0 °F26.6 °F57 %30.22 in10.0 miCalmClear
7:15 PM41.0 °F26.6 °F57 %30.22 in10.0 miWSW (240°)3.5 mphScattered Clouds
7:35 PM41.0 °F26.6 °F57 %30.22 in10.0 miWSW (250°)4.6 mphMostly Cloudy
7:55 PM41.0 °F26.6 °F57 %30.22 in10.0 miNW (310°)6.9 mphOvercast
8:15 PM42.8 °F28.4 °F57 %30.23 in10.0 miWest (280°)8.1 mphOvercast
8:35 PM41.0 °F28.4 °F61 %30.22 in10.0 miWest (260°)8.1 mphOvercast
8:55 PM39.2 °F30.2 °F70 %30.22 in10.0 miWest (270°)6.9 mphOvercast
9:15 PM41.0 °F32.0 °F70 %30.22 in10.0 miNNW (330°)3.5 mphDrizzle
9:35 PM42.8 °F32.0 °F66 %30.22 in10.0 miCalmLight Drizzle
9:55 PM42.8 °F32.0 °F66 %30.21 in10.0 miWSW (250°)8.1 mphLight Drizzle
10:15 PM42.8 °F32.0 °F66 %30.20 in10.0 miWest (270°)5.8 mphLight Drizzle
10:35 PM42.8 °F32.0 °F66 %30.21 in10.0 miCalmLight Drizzle
10:55 PM42.8 °F30.2 °F61 %30.21 in10.0 miCalmScattered Clouds
11:15 PM42.8 °F32.0 °F66 %30.21 in10.0 miWest (270°)4.6 mphMostly Cloudy
11:35 PM41.0 °F32.0 °F70 %30.20 in10.0 miWest (260°)3.5 mphLight Drizzle
11:55 PM41.0 °F32.0 °F70 %30.20 in10.0 miCalmOvercast
Hourly data recorded from KL35, located miles away from Little Morongo Heights, California







STORIES FROM OUR PARTNERS